Regional Weather Roundup
Issued by NWS

Home | Current Version | Previous Version | Text Only | Print | Product List | Glossary On
Versions: 1 2 3 4 5 6 7 8 9 10 11 12 13 14 15 16 17 18 19 20 21 22 23 24 25 26 27 28 29 30 31 32 33 34 35 36 37 38 39 40 41 42 43 44 45 46 47 48 49 50
000
ASUS44 KLIX 250410
RWRLA
LOUISIANA WEATHER ROUNDUP
NATIONAL WEATHER SERVICE NEW ORLEANS LA
1000 PM CST WED DEC 24 2014

NOTE: "FAIR" INDICATES FEW OR NO CLOUDS BELOW 12,000 FEET WITH NO
      SIGNIFICANT WEATHER AND/OR OBSTRUCTIONS TO VISIBILITY.
      SKY/WX - SKY CONDITION AND SIGNIFICANT WEATHER.
      TMP - AIR TEMPERATURE.    DP   - DEWPOINT TEMPERATURE.
      RH  - RELATIVE HUMIDITY.  PRES - PRESSURE.
      HX  - HEAT INDEX.         WCI  - WIND CHILL INDEX.

*  THESE STATIONS ARE NOT NWS OR FAA STATIONS AND ARE NOT UNDER
   NWS QUALITY CONTROL.

LAZ040-048-061>063-065-066-069-250500-
SOUTHEAST LOUISIANA

CITY           SKY/WX    TMP DP  RH WIND       PRES   REMARKS
N.O. AUDUBON     N/A     50  36  57 MISG        N/A
N.O. INTL ARPT MOCLDY    49  33  54 W10       30.13R
N.O. LAKEFRONT MOCLDY    51  35  54 NW18      30.13R
N.O. DOWNTOWN* CLOUDY    50  30  46 NW6       30.13R
SLIDELL        CLEAR     40  35  83 CALM      30.11R
BATON ROUGE    CLEAR     42  35  76 W5        30.13R
BOOTHVILLE     MOCLDY    49  38  65 NW9       30.13R
BELLE CHASSE   MOCLDY    49  32  52 W5        30.12R
BOGALUSA*        N/A     40  36  88 CALM      30.12R
GALLIANO*      CLOUDY    49  36  59 MISG      30.14S
NEW ROADS*     FAIR      42  38  84 SW5       30.13R
GONZALES*      FAIR      44  37  73 W3        30.13R
HAMMOND*       NOT AVBL
HOUMA*         PTCLDY    46  34  64 W3        30.14R
PORT FOURCHON* CLOUDY    50  37  62 NW14      30.17R

$$

LAZ041-044-053-054-250500-
SOUTHWEST LOUISIANA

CITY           SKY/WX    TMP DP  RH WIND       PRES   REMARKS
LAKE CHARLES   CLEAR     38  36  92 CALM      30.14R
LAFAYETTE      CLEAR     42  36  79 W5        30.15R
PATTERSON      CLEAR     45  36  70 NW3       30.15S
SALT POINT       N/A     59  37  44 VRB6      30.14R
NEW IBERIA     CLEAR     42  36  79 CALM      30.16R
CHENAULT AIRPK CLEAR     37  36  97 CALM      30.15R

$$

LAZ027-028-250500-
CENTRAL LOUISIANA

CITY           SKY/WX    TMP DP  RH WIND       PRES   REMARKS
FORT POLK      CLEAR     36  35  97 SW2       30.12R
ALEXANDRIA INT CLEAR     38  34  85 CALM      30.11R
ALEXANDRIA     CLEAR     33  32  96 CALM      30.12R

$$

LAZ001-002-250500-
NORTHWEST LOUISIANA

CITY           SKY/WX    TMP DP  RH WIND       PRES   REMARKS
SHREVEPORT     CLEAR     35  32  88 CALM      30.08R
BARKSDALE AFB  CLEAR     32  29  89 S2        30.09R
DTN SHREVEPORT CLEAR     34  30  85 CALM      30.09R

$$

LAZ014-016-250500-
NORTHEAST LOUISIANA

CITY           SKY/WX    TMP DP  RH WIND       PRES   REMARKS
MONROE         PTCLDY    43  33  68 W5        30.11R
TALLULAH       PTCLDY    40  34  79 W6        30.10R

$$




USA.gov is the U.S. government's official web portal to all federal, state and local government web resources and services.